Preview of NWS' New Version of Forecast
This preview is not operational and should not be used for support decisions.

Regional Weather Roundup (RWR)

Issued by Gray - Portland, ME (GYX)

                            
000
ASUS41 KGYX 210910
RWRGYX
WEATHER ROUNDUP FOR MAINE AND NEW HAMPSHIRE
NATIONAL WEATHER SERVICE GRAY ME
500 AM EDT WED AUG 21 2019

MEZ002-005-006-010-012-015-018-020-021-024-026-027-029-211000-
MAINE
  
CITY           SKY/WX    TMP DP  RH WIND       PRES   REMARKS
PORTLAND       FAIR      60  56  86 CALM      30.00F                  
SANFORD        FAIR      55  54  96 CALM      30.01F                  
BAR HARBOR     FAIR      62  60  93 CALM      30.02F                  
WISCASSET      FOG       57  56  96 CALM      30.01F VSB 3/4          
ROCKLAND       MOCLDY    55  55 100 CALM      30.02S                  
FRYEBURG       FAIR      53  52  96 CALM      30.01F                  
LEWISTONAUBURN FAIR      55  55 100 CALM      30.00F                  
AUGUSTA        FAIR      60  58  92 CALM      30.00F                  
WATERVILLE     FAIR      58  57  97 CALM      29.98S                  
BANGOR         FAIR      59  57  93 CALM      30.00F                  
GREENVILLE     NOT AVBL                                               
MILLINOCKET    FAIR      56  54  93 CALM      30.01R                  
HOULTON        FAIR      61  55  81 S7        29.97S                  
PRESQUE ISLE   FAIR      51  50  96 CALM      29.97S                  
FRENCHVILLE    FAIR      59  52  77 S6        29.95S                  
CARIBOU        FAIR      57  53  86 CALM      29.95F                  
$$

NHZ002-005-008-009-011-012-014-211000-
NEW HAMPSHIRE
  
CITY           SKY/WX    TMP DP  RH WIND       PRES   REMARKS
PORTSMOUTH     MOCLDY    62  62  97 CALM      29.99F                  
ROCHESTER      FAIR      58  56  93 NW5       30.00F                  
NASHUA         FAIR      62  62 100 CALM      30.02S                  
MANCHESTER     FAIR      65  61  87 CALM      29.99F                  
CONCORD        FAIR      57  55  93 CALM      30.01F                  
LACONIA        FAIR      57  56  96 CALM      30.02F                  
PLYMOUTH       FAIR      53  52  97 CALM      30.02F                  
BERLIN         NOT AVBL                                               
WHITEFIELD     LGT RAIN  49  46  90 CALM      30.01F                  
JAFFREY        FAIR      60  57  89 CALM      30.04F                  
KEENE          MOCLDY    58  58 100 CALM      30.02F                  
LEBANON        FAIR      57  52  83 CALM      30.00F                  
MT WASHINGTON  MOCLDY    50  45  81 W36         N/A                   
$$

VTZ005-007-008-211000-
VERMONT
  
CITY           SKY/WX    TMP DP  RH WIND       PRES   REMARKS
ST JOHNSBURY     N/A     56  56 100 MISG      29.99F                  
MONTPELIER     FAIR      55  54  96 CALM      30.03F                  
BURLINGTON     FAIR      62  57  83 CALM      29.94F                  
$$

MAZ007-012-024-CTZ003-RIZ002-NYZ038-NYZ072-211000-
SOUTHERN NEW ENGLAND AND NY
  
CITY           SKY/WX    TMP DP  RH WIND       PRES   REMARKS
BOSTON         MOCLDY    71  62  73 S5        30.02R                  
WORCESTER      FAIR      65  62  90 SW8       30.04S                  
NANTUCKET      FAIR      68  68 100 SE8       30.04F FOG              
PROVIDENCE     FAIR      66  64  93 CALM      30.03S                  
HARTFORD       MOCLDY    67  64  90 CALM      30.00F                  
ALBANY         CLOUDY    72  65  78 S5        29.96F THUNDER          
NEW YORK CITY  FAIR      78  72  81 S3        29.97F                  
$$

ANZ081-ANZ082-ANZ150-NHZ014-MEZ023>029-211000-
COASTAL MARINE OBSERVATIONS
  
STATION/POSITION TIME  TEMP    WIND        PRES    WAVE
                       AIR SEA DIR/SP/G            HT/PER
                 (UTC) (F)     (DEG/KT/KT) (MB)    (FT/S)
MATINICUS ROCK   0850   63                 1016.2F
ISLE OF SHOALS   0800   68     210/  7/  7 1015.6F
JEFFREYS LEDGE   0838      69                N/A     2/11
CASHES LEDGE BUO 0850   65 63  180/  8/ 10 1016.9F   2/10
GEORGES BANK BUO 0850   67 70  300/  2/  2 1019.1R   3/10
$$

.............KEY..............
   WCI - WIND CHILL
   TC  - TEMPERATURE IN CELSIUS
   VSB - VISIBILITY IN MILES
   HX  - HEAT INDEX
   FAIR- INDICATES FEW OR NO CLOUDS BELOW 12,000 FT, WITH NO 
         SIGNIFICANT WEATHER AND/OR OBSTRUCTIONS TO VISIBILITY.